Dewpoint
61 56 58 54 50 45 40 40 22 24 26 20 23 23 22 24 24 19 19 15 17 19 22 20 36 40 44 54 58 60 61 56 57 49 47 58 68 69 70 71 72 72 73 74 74 74 74 74 74 74 74 74 74 73 73 73 73 73 73 73 73 73 72 72 72 72 72 72 72 71 71 71 70 70 69 68 68 69 69 68 68 68 67 67 67 68 68 68 68 66 66 66 68 68 68 69 68
52 50 51 50 45 41 39 38 26 24 25 22 20 22 21 21 22 12 12 18 19 21 18 48 56 57 58 59 59 58 61 63 63 63 65 67 69 69 71 71 72 72 73 74 74 73 74 74 74 74 74 74 74 73 73 73 73 73 73 73 73 73 73 72 72 72 72 72 71 71 71 70 70 69 68 69 69 69 69 68 67 67 67 67 67 68 68 68 68 68 67 67 67 68 68 68 68
56 48 43 45 43 43 41 34 30 25 22 20 20 21 22 20 10 6 11 12 13 19 11 39 48 51 55 55 53 57 56 64 64 65 65 67 66 68 70 71 72 72 73 73 73 73 73 74 74 74 74 74 73 73 73 73 73 73 73 73 73 72 72 72 72 72 72 71 71 71 71 70 70 70 69 69 70 69 69 69 67 67 67 67 68 68 69 69 69 69 68 68 67 68 68 68 68
55 50 42 48 40 37 34 32 30 25 20 19 16 16 12 16 3 7 10 9 9 9 9 49 56 57 56 56 58 60 60 62 64 65 64 65 66 68 70 72 73 73 73 73 73 73 73 74 74 74 74 74 74 73 73 73 73 73 73 73 73 72 72 72 72 72 72 71 71 71 70 70 70 70 69 69 70 69 68 68 68 67 68 69 70 70 70 70 69 68 68 68 68 69 69 68 68
45 53 47 47 39 35 31 30 30 27 25 22 17 15 11 7 5 7 9 8 8 8 19 51 55 57 58 56 57 55 59 63 64 64 64 65 67 69 71 72 72 72 72 73 73 73 73 74 74 74 74 74 74 73 73 73 73 73 73 73 73 72 72 72 72 72 72 71 71 71 70 71 70 69 69 70 69 68 68 69 70 70 70 70 69 70 70 70 70 68 68 68 69 69 69 69 68
46 43 49 47 39 34 31 29 30 24 26 20 18 18 13 7 8 8 8 9 9 11 32 47 53 56 58 60 62 58 63 61 63 64 65 65 67 69 70 71 71 72 72 73 73 73 73 74 74 74 74 74 74 73 73 73 73 73 73 73 72 72 72 72 72 71 71 71 71 70 71 71 70 70 69 70 69 69 69 69 69 70 71 71 71 70 70 69 69 68 68 68 69 69 69 69 69
39 38 41 40 37 32 30 30 28 28 27 23 22 21 20 18 9 13 9 14 15 26 54 56 58 57 56 59 63 64 64 64 63 64 65 66 68 68 69 69 71 71 72 73 73 73 74 74 73 74 74 73 73 73 73 73 73 73 73 73 72 72 72 72 71 71 71 71 71 71 71 71 70 70 69 69 69 69 70 70 71 71 71 71 71 70 70 69 69 69 69 69 69 69 69 69 69
47 33 36 33 29 30 28 28 27 28 26 26 23 21 19 17 13 17 15 13 13 28 56 56 57 59 59 62 61 64 64 64 64 65 66 66 67 67 68 70 71 72 72 73 73 73 74 73 73 74 74 73 73 73 73 73 73 73 73 73 72 72 72 72 71 71 71 71 71 71 71 71 70 69 69 69 69 69 72 71 71 71 71 71 70 70 69 69 69 69 69 69 69 69 69 69 69
40 33 37 28 28 26 19 21 24 25 25 23 21 22 37 16 14 18 19 18 18 22 55 57 57 58 60 63 62 64 63 64 65 66 66 66 66 67 68 70 71 71 72 73 73 73 73 73 73 73 73 73 73 73 73 73 73 73 73 73 73 72 72 72 71 71 71 72 71 71 71 71 70 70 70 70 69 71 71 71 71 71 71 70 70 70 70 69 69 69 69 69 69 69 69 69 69
39 32 29 29 27 26 22 21 16 13 16 17 17 16 15 18 16 20 21 17 20 55 55 53 58 60 62 62 63 64 64 64 65 65 66 66 66 67 69 70 71 71 72 72 72 73 73 74 73 73 73 73 73 73 73 73 73 73 73 72 72 72 72 72 72 72 72 72 72 72 72 71 71 71 71 70 70 71 71 72 71 71 70 70 70 70 70 70 70 70 70 69 69 69 70 70 70
35 30 31 25 28 25 24 23 21 21 20 18 12 10 11 12 20 19 19 18 32 55 58 59 59 60 61 62 62 66 67 65 64 65 66 66 66 67 68 70 71 72 72 72 72 72 73 73 74 73 73 73 73 73 73 73 73 73 72 72 72 72 72 72 72 72 72 72 72 72 73 72 71 70 70 70 71 71 71 71 71 71 70 71 70 70 70 70 70 70 70 70 70 70 70 70 70
33 28 25 25 26 24 22 22 20 18 14 11 9 15 13 16 19 21 20 26 37 53 55 58 58 61 61 62 62 65 66 65 66 67 66 66 66 68 69 70 71 71 72 72 72 72 72 73 72 74 73 73 73 73 73 73 73 72 72 72 72 72 72 72 72 72 72 72 72 72 72 72 71 70 71 71 71 71 71 71 70 70 70 70 70 70 70 70 70 70 70 70 70 70 70 70 70
32 27 24 21 22 20 23 17 16 22 17 9 10 13 14 18 19 19 19 39 51 53 55 59 60 61 59 62 66 66 65 66 68 68 66 65 67 68 69 70 71 71 71 72 71 72 72 72 72 72 73 73 73 73 73 73 73 72 72 72 72 72 72 72 72 72 72 72 72 72 72 72 72 71 71 71 71 71 71 70 70 70 70 70 70 70 70 70 70 70 70 70 70 70 70 70 70
31 27 24 24 22 17 16 16 13 10 6 10 11 13 15 17 17 17 28 44 51 55 59 61 62 63 62 63 64 64 64 67 68 68 66 66 67 68 69 69 70 71 71 71 71 71 72 72 72 72 72 72 72 73 73 73 72 72 72 72 72 72 72 72 72 72 72 72 71 72 72 71 71 71 71 71 71 71 71 70 70 70 70 70 70 70 70 70 70 70 70 70 70 70 70 70 70
31 27 26 26 21 20 16 14 10 4 6 11 12 15 15 19 20 18 23 40 53 60 61 62 61 58 59 62 62 64 65 67 67 68 66 67 67 67 68 69 70 70 70 70 71 71 71 71 71 72 72 72 72 71 72 72 73 72 72 72 72 72 72 72 72 71 71 71 71 71 71 71 72 72 71 71 71 71 70 70 70 70 70 70 70 69 70 70 70 70 70 70 70 70 70 70 70
30 20 22 24 15 14 13 11 11 8 9 11 13 16 15 14 18 20 20 30 49 56 56 54 58 58 61 62 62 65 66 67 67 68 67 67 67 67 67 68 68 69 69 70 70 70 71 71 71 71 71 71 71 71 71 71 72 72 72 72 72 72 72 72 71 71 71 71 71 71 70 71 71 71 71 71 71 71 70 70 70 70 70 70 70 69 69 69 70 70 70 70 70 70 70 70 70
22 21 17 17 13 13 13 13 8 9 9 11 12 12 12 11 9 20 25 48 52 56 58 58 57 61 62 62 64 65 66 67 68 68 66 66 65 65 65 66 66 67 68 69 69 70 70 70 70 70 71 70 70 70 70 71 71 72 72 72 72 72 72 71 71 71 71 71 70 71 71 70 70 70 70 70 71 70 70 70 70 70 70 70 70 69 69 69 69 69 69 70 70 70 70 70 70
21 20 17 16 14 12 14 12 10 9 9 9 12 12 8 7 8 13 30 58 58 61 61 62 64 64 63 65 66 66 66 66 67 66 66 65 65 64 64 64 65 65 66 67 68 69 69 70 70 70 70 70 70 70 70 71 71 71 71 71 71 71 71 71 71 70 71 70 70 70 69 70 69 68 69 71 70 70 69 70 70 69 70 70 69 69 69 69 68 68 69 69 70 70 70 64 66
18 21 17 13 13 13 13 12 9 7 7 11 12 12 12 9 11 13 10 47 58 59 61 62 63 64 65 66 66 65 66 66 66 66 65 65 64 63 63 63 64 64 65 65 67 68 69 69 69 69 69 70 70 70 70 71 70 70 70 70 71 71 71 71 70 70 70 69 69 69 70 69 68 69 69 70 70 70 70 69 69 69 69 69 69 69 69 68 69 68 67 69 69 70 66 64 66
16 17 15 13 14 12 12 11 10 11 11 11 10 10 8 9 11 16 12 46 57 58 60 61 62 63 64 65 65 65 66 66 66 66 65 65 64 64 63 63 63 63 64 64 66 68 68 68 68 69 69 69 69 69 70 70 70 70 70 70 70 70 70 70 70 69 69 69 69 68 68 69 68 68 71 70 70 69 69 69 69 69 69 69 68 69 68 68 68 68 68 68 69 68 64 64 65
15 15 13 13 13 11 12 12 11 11 11 13 11 12 7 6 7 20 12 35 49 56 61 61 62 63 64 64 65 66 66 66 66 66 66 66 65 64 64 64 63 63 64 64 66 67 67 67 68 68 69 69 69 69 69 69 69 70 69 69 69 70 69 69 69 69 69 69 68 68 68 68 68 68 68 68 68 68 67 67 68 67 65 65 69 64 64 65 65 64 65 67 63 64 64 63 64
14 13 14 13 13 11 12 12 12 12 15 9 10 6 7 9 10 10 9 10 21 53 57 61 63 64 64 64 65 66 65 65 66 66 65 66 65 64 65 65 65 64 65 65 65 66 66 66 67 68 68 68 69 69 69 70 70 69 69 69 69 68 68 67 68 68 68 68 68 68 68 68 67 67 67 67 67 67 67 67 67 66 64 65 67 63 63 61 62 62 62 63 63 63 63 62 64
10 11 11 12 12 11 12 12 14 11 11 9 9 10 9 11 12 14 12 13 24 48 58 63 64 65 65 65 65 65 65 65 65 65 65 65 65 65 65 65 64 64 65 65 65 66 66 66 67 68 68 68 68 69 69 69 69 68 68 68 68 67 67 67 67 67 68 68 68 68 67 67 67 67 67 67 67 67 66 66 66 65 65 64 65 64 62 61 61 61 60 60 60 61 61 61 64
10 10 9 9 10 10 10 11 11 9 9 9 9 11 8 10 6 12 17 39 51 57 61 63 64 65 65 64 65 65 65 65 65 66 66 66 65 65 65 65 65 65 65 65 65 66 66 66 67 67 68 68 68 69 68 68 68 68 68 69 68 68 67 66 67 67 68 68 68 68 68 67 67 66 66 67 67 66 67 66 66 65 64 64 65 65 62 61 61 60 60 60 60 60 59 61 63
10 10 10 7 7 8 8 7 9 12 11 11 10 8 7 8 7 10 20 53 56 59 62 63 64 64 64 64 64 64 64 65 65 64 63 63 63 64 65 65 66 66 65 66 66 66 66 67 67 67 67 68 68 68 68 67 67 67 68 68 67 69 66 66 67 68 68 68 68 67 68 67 67 66 65 66 66 66 66 66 65 64 64 64 64 63 62 61 60 60 60 60 60 61 60 61 61
9 8 7 7 7 7 6 7 8 9 12 9 7 8 7 6 12 8 26 55 57 60 61 62 63 63 63 64 64 64 64 64 61 61 62 63 64 63 62 63 65 65 65 66 66 66 67 67 66 67 67 68 67 67 67 67 67 67 67 66 66 68 65 66 67 67 67 67 67 67 67 67 66 66 66 65 66 65 65 65 65 64 63 62 62 62 62 62 61 60 60 62 61 61 61 62 61
8 7 6 5 5 5 6 5 8 13 12 9 9 9 8 9 8 4 18 55 59 60 60 61 62 62 63 64 64 63 63 60 60 62 62 63 63 63 63 63 64 65 65 65 65 66 67 67 66 67 67 68 67 66 66 66 66 66 66 66 66 65 65 65 66 67 67 66 66 66 66 67 66 67 66 65 65 65 64 64 64 63 63 63 62 62 62 63 62 63 63 62 61 61 62 62 62
7 5 5 7 7 7 7 14 12 10 11 10 8 8 9 10 8 4 11 55 58 59 60 60 61 61 62 63 63 63 61 61 61 62 61 61 63 63 63 63 63 64 64 64 65 65 66 67 67 67 67 67 66 66 66 66 65 66 65 66 65 65 65 65 66 66 67 66 66 66 66 67 67 66 65 65 65 64 64 64 64 63 63 63 64 63 64 65 65 64 63 63 63 63 63 63 63
8 6 4 4 6 5 10 9 13 12 10 9 11 9 6 8 5 5 35 54 57 58 59 59 60 61 62 63 63 62 60 61 61 61 61 62 63 63 62 64 64 63 64 64 64 65 66 66 67 67 67 66 66 66 66 66 66 66 65 65 65 66 65 65 65 66 66 66 66 66 66 67 66 65 65 65 65 64 64 64 64 64 64 64 65 65 65 64 64 63 64 64 63 63 63 63 64
10 7 4 2 4 3 5 11 12 11 11 10 9 7 8 5 4 6 53 53 56 57 58 59 59 61 62 63 63 60 60 61 60 61 62 62 63 63 63 64 65 64 64 65 65 65 65 66 65 66 67 66 66 66 66 66 66 66 66 65 66 65 65 65 66 66 67 67 66 66 66 66 66 65 65 65 65 64 64 64 64 64 65 65 65 65 64 63 64 65 64 63 65 62 62 62 62
10 7 6 6 3 4 10 7 8 8 10 9 8 10 7 7 7 6 46 54 55 55 57 57 58 60 62 62 62 60 60 60 60 61 62 62 63 63 63 65 64 64 64 65 65 65 66 67 66 66 66 66 66 66 66 66 66 66 66 65 65 65 65 65 65 66 67 67 67 66 66 66 66 66 66 65 65 64 64 64 64 64 65 65 65 64 63 63 64 64 64 62 61 62 62 63 62
9 7 9 14 5 3 7 11 10 4 9 7 6 13 5 5 5 5 38 55 55 54 56 56 56 58 61 61 60 60 59 59 60 61 62 62 63 63 63 64 64 64 64 64 65 65 65 66 66 66 66 65 65 65 65 65 66 66 66 67 65 65 65 65 65 66 66 67 66 65 66 66 65 66 66 65 64 64 64 64 64 65 65 64 64 64 64 63 63 63 63 63 62 62 62 62 62
14 9 22 16 6 4 4 5 7 5 8 10 5 4 5 2 4 5 20 54 55 54 55 55 55 57 60 59 59 58 57 57 59 61 61 62 62 63 64 64 64 64 64 65 65 65 65 66 66 66 65 65 65 65 65 65 66 66 66 66 66 66 66 65 66 67 66 66 66 65 65 66 65 65 66 65 64 64 64 64 65 65 65 65 64 64 63 63 63 63 62 62 62 62 62 62 61
15 12 11 13 7 9 5 6 7 5 4 3 5 3 5 8 11 7 10 51 53 53 53 53 54 57 58 58 57 57 57 56 58 60 61 62 62 63 64 64 64 64 65 65 65 65 65 66 67 65 64 65 65 65 65 65 66 66 66 66 67 66 66 66 67 67 66 66 66 65 66 66 66 65 66 65 65 64 64 64 65 65 65 64 63 63 63 63 63 63 62 62 62 62 61 61 61
13 17 13 11 10 11 6 5 2 4 3 4 5 5 5 3 6 10 6 12 51 51 51 53 54 56 57 57 57 56 56 56 57 60 60 61 62 63 63 63 64 64 64 64 65 66 66 66 66 65 64 65 65 65 65 66 66 66 65 65 66 66 66 66 66 66 65 65 65 65 66 65 66 66 65 65 65 65 64 64 64 64 64 63 63 63 63 63 63 63 62 62 62 61 62 61 62
14 15 14 15 12 9 7 6 5 2 3 2 3 3 3 6 10 14 31 47 47 50 51 53 54 55 56 56 56 55 55 56 57 59 60 61 62 62 62 63 63 64 64 64 62 64 63 64 64 64 64 65 65 65 65 65 66 66 65 66 66 65 65 66 65 65 65 65 65 65 65 65 65 66 65 65 65 65 64 64 64 64 63 63 62 62 62 62 63 63 62 62 61 62 61 62 62
9 9 9 8 8 9 12 12 8 2 2 5 5 8 8 12 14 17 25 49 49 49 50 51 52 53 54 54 54 54 54 55 57 60 60 61 62 62 62 63 63 63 63 63 62 62 63 62 63 63 65 65 64 64 65 65 65 65 65 65 65 65 64 65 65 65 64 65 66 65 65 65 65 66 65 65 64 65 64 64 64 64 63 63 62 62 62 63 63 62 62 62 61 60 60 62 62
11 12 13 11 12 13 14 15 9 13 19 7 15 9 11 13 21 17 25 48 48 49 49 49 51 52 53 54 53 53 54 55 57 58 59 60 61 63 62 63 63 62 62 62 61 61 62 62 63 64 65 64 64 64 64 64 65 65 65 65 65 65 65 65 65 65 64 65 65 65 65 65 65 65 65 65 65 65 63 63 63 63 63 63 62 62 62 63 63 62 62 61 60 61 60 62 63
21 16 15 15 13 17 17 18 16 14 12 13 14 7 9 18 21 24 21 38 47 49 48 48 49 51 52 54 53 53 54 55 56 57 59 61 61 64 64 63 62 62 62 61 61 61 61 62 63 64 64 64 64 64 64 64 65 65 65 65 65 64 64 65 65 65 65 64 64 65 65 64 64 64 65 65 64 64 64 63 63 63 63 63 62 62 63 62 63 62 61 61 60 59 60 62 62
22 21 16 12 12 14 14 22 12 12 18 16 18 10 22 30 27 24 24 23 27 47 48 48 49 51 52 53 53 53 54 54 55 57 58 61 64 63 62 61 61 61 61 61 61 61 62 63 63 63 63 64 63 63 64 64 65 65 64 64 65 64 63 65 65 65 65 64 64 64 63 64 64 64 64 64 64 64 64 63 63 62 62 63 63 62 63 62 62 61 61 61 61 60 60 61 62
29 22 14 12 15 16 15 18 17 25 23 28 23 28 24 29 17 20 20 24 19 38 47 47 49 51 52 53 54 54 54 54 55 56 60 61 61 61 61 61 61 60 61 60 60 61 62 63 63 63 63 63 63 64 64 64 65 65 64 64 64 64 64 65 65 65 65 65 64 64 64 64 64 64 64 64 64 63 64 63 63 63 63 64 63 63 63 62 61 61 61 61 61 60 60 60 61
21 31 22 23 22 21 22 23 17 22 17 25 13 11 17 24 24 23 20 20 23 23 44 45 47 49 50 53 54 54 54 54 55 57 59 61 60 60 60 60 60 60 60 60 61 62 62 63 63 63 63 63 63 63 63 64 65 65 64 63 63 63 63 63 63 63 63 63 64 64 64 64 64 64 64 64 64 64 63 63 64 64 64 64 64 63 63 63 63 62 62 61 61 61 60 60 59
22 22 27 23 21 24 23 20 18 11 9 17 24 12 13 22 19 19 23 35 43 45 44 43 42 40 42 46 50 53 53 55 57 58 58 58 59 58 58 58 59 59 60 61 62 62 62 63 63 63 63 63 63 63 64 64 64 64 64 63 63 63 62 64 64 64 64 63 63 63 63 63 64 63 63 63 63 64 63 63 64 64 65 64 64 63 63 63 63 62 62 61 61 61 61 60 60
19 25 24 20 20 19 21 20 14 17 24 26 22 18 9 10 15 22 30 43 45 47 48 50 50 50 42 44 53 55 55 56 57 57 58 58 58 57 57 58 59 59 60 61 61 62 62 62 63 63 63 63 63 64 64 65 64 64 63 63 63 62 62 63 64 63 63 63 62 62 63 63 63 63 63 63 63 63 63 64 64 64 65 64 64 63 62 62 62 63 62 61 62 61 60 60 60
19 24 20 18 17 20 15 13 15 17 18 11 23 18 12 12 28 39 37 41 43 46 49 50 51 52 52 53 56 57 58 57 57 57 57 57 57 57 57 58 59 59 60 60 61 61 62 63 63 63 63 63 63 64 64 64 64 64 63 63 62 62 62 63 63 63 63 63 62 61 62 63 63 63 63 63 63 63 64 64 64 64 64 64 63 62 61 61 62 62 62 61 62 61 61 60 60
17 21 20 20 16 14 13 15 12 21 12 9 18 23 7 11 40 43 43 43 44 46 48 50 52 52 53 54 56 57 57 58 58 58 58 58 58 57 58 58 58 59 60 60 61 61 62 62 62 62 62 63 63 63 64 64 64 63 63 62 62 62 62 62 63 62 62 62 61 61 61 61 62 62 63 63 63 63 64 64 64 64 63 63 63 63 63 62 62 62 62 61 62 61 60 61 61
18 16 15 13 17 17 26 24 24 17 8 14 21 26 7 17 40 43 43 45 46 47 48 50 51 53 54 54 55 56 57 57 57 58 58 58 58 58 58 58 58 58 59 59 59 60 61 62 62 62 61 62 62 62 63 63 63 62 61 61 61 61 61 62 62 61 61 60 60 60 60 61 62 61 62 62 62 63 64 64 64 64 63 64 63 62 62 62 62 62 62 62 62 61 61 60 60
13 15 15 12 16 20 20 21 22 8 11 20 21 16 10 8 27 44 49 50 50 49 49 50 51 52 54 55 55 56 57 57 57 57 57 58 58 57 58 58 58 58 58 59 59 60 61 61 60 60 61 61 62 63 63 63 64 63 63 62 61 61 62 62 61 61 61 60 59 59 59 60 60 60 61 61 62 63 63 63 63 63 63 62 62 62 63 63 63 63 63 62 62 61 61 61 60
12 16 16 12 12 12 6 13 5 7 11 15 18 12 26 36 40 47 48 50 50 50 51 51 52 52 53 54 55 56 56 57 57 57 57 58 57 57 57 58 58 58 58 59 60 60 61 62 61 61 61 62 62 62 62 62 63 63 63 62 61 61 61 62 61 61 60 60 59 59 60 59 60 60 60 60 60 61 62 61 61 61 62 62 62 62 62 63 63 63 62 62 61 61 61 61 60
10 10 17 12 8 8 4 13 11 12 14 20 17 19 22 38 41 47 48 50 50 50 51 51 52 52 52 53 54 55 55 56 56 56 56 56 57 57 58 58 58 58 59 59 59 60 60 61 61 61 61 62 62 62 63 63 63 63 63 62 61 62 61 61 61 61 60 60 60 60 60 60 59 59 59 60 60 61 61 60 60 61 62 62 62 62 63 63 63 63 62 62 61 61 61 60 60
10 13 11 14 16 13 5 10 5 7 7 18 25 12 18 32 38 46 49 51 51 51 51 51 52 52 53 53 53 54 55 55 55 54 56 56 57 58 58 58 58 59 59 59 59 60 59 59 60 61 62 62 62 62 63 63 63 63 63 62 62 62 61 61 61 61 60 60 60 60 60 60 59 59 59 60 60 60 60 60 60 61 61 61 61 61 62 62 63 63 62 62 61 61 61 61 60
18 13 14 14 13 21 11 17 16 16 13 13 22 21 33 38 45 47 49 51 51 52 52 52 52 52 53 53 53 53 54 55 55 55 55 56 57 58 58 58 58 58 59 59 59 59 60 60 60 61 62 62 62 62 62 63 63 63 63 62 62 61 61 61 60 60 59 60 60 60 60 59 59 59 60 60 59 60 60 60 60 60 61 61 61 61 61 61 62 62 61 61 61 63 61 61 60
23 11 12 12 18 12 14 13 23 17 17 11 23 35 38 41 44 45 49 50 51 51 51 52 52 52 53 53 53 54 54 54 55 55 55 55 56 56 57 57 57 57 57 58 59 60 60 60 60 60 60 61 61 62 62 62 63 62 62 62 62 61 61 60 60 59 59 59 60 59 60 59 59 60 60 60 60 60 60 60 60 60 60 61 60 61 61 61 61 61 61 60 61 61 61 61 60
12 14 12 16 18 21 17 13 15 9 8 14 27 33 34 31 28 41 46 48 48 50 51 51 51 52 52 53 53 54 54 54 55 56 56 56 55 56 57 58 58 58 58 58 59 60 61 60 59 59 59 60 61 61 61 62 62 62 62 62 62 61 61 60 60 59 60 59 59 59 60 59 59 60 60 60 59 59 60 62 60 59 59 60 60 60 60 60 60 60 60 60 61 61 61 60 60
12 13 16 12 12 9 22 18 5 5 5 7 26 31 31 30 33 40 44 47 48 49 50 50 50 50 50 51 51 51 51 51 51 52 52 53 54 57 57 57 58 59 58 58 58 59 60 60 60 60 59 61 62 62 61 61 61 62 62 62 61 61 61 61 60 60 60 59 59 60 59 60 60 60 60 59 58 59 60 59 59 59 59 59 59 59 60 60 60 59 59 59 59 61 60 60 59
14 11 11 20 24 24 10 14 14 14 10 10 18 28 22 35 37 44 46 47 48 47 48 49 49 49 49 50 49 49 50 50 50 51 52 52 53 53 56 57 57 57 58 58 58 58 59 58 58 59 61 62 62 62 61 61 61 62 62 62 62 62 61 61 60 60 60 59 59 59 58 59 59 60 59 58 59 59 58 58 59 59 58 58 58 58 59 59 59 59 59 59 59 60 60 60 59
14 13 14 13 22 24 17 25 13 10 12 12 19 22 27 36 45 46 47 48 49 48 47 48 48 49 49 48 49 49 48 48 49 50 50 50 51 52 53 54 56 56 56 58 59 58 58 59 58 59 59 60 60 61 60 60 60 61 62 62 61 61 61 61 60 60 60 59 59 59 59 59 59 59 58 58 58 57 57 58 58 58 58 58 58 57 58 58 57 58 58 58 59 60 60 59 60
16 15 15 12 12 10 10 15 26 21 18 15 19 21 31 44 48 48 48 48 49 49 48 48 48 48 48 47 47 47 47 47 47 48 48 49 49 49 50 51 53 53 55 55 57 58 58 58 59 58 58 59 59 60 60 60 60 60 61 62 61 61 61 61 60 59 60 59 59 59 59 59 59 58 58 58 56 56 55 56 56 56 57 57 57 57 57 56 56 57 57 57 58 58 59 59 59